SHENZHOU-20 (SZ-20) (63632 NORAD) Tracking and Keplerian Element Data

This shows tracking and keplerian element data for the satellite.

Feedback or suggestion? Click here.




ElementValue
Catalog63632
NameSHENZHOU-20 (SZ-20)
Epoch Orbit25530
Epoch Day354.20808758
Epoch Year2025
RAAN331.3573
Inclination41.4685
Eccentricity0.0007746
Argument of Perigee96.7908
Mean Anonmoly263.3812
Mean Motion15.59496428
Decay Rate0.00018311
L11 63632U 25082A 25354.20808758 .00018311 00000+0 22776-3 0 9994
L22 63632 41.4685 331.3573 0007746 96.7908 263.3812 15.59496428255301



Live tracking and technical data element details for SHENZHOU-20 (SZ-20) (NORAD 63632). SHENZHOU-20 (SZ-20) can be tracked NOW for your location showing map with azimuth and elevation plus other details from your city location.







IsCatalogInMostPopularTable: catalog: 63632, numindb: 21
Update: records affected: 1



GetName: 63632 SHENZHOU-20 (SZ-20)

Hit Count: updated at: Mon, 20 Apr 2026 10:10:17 GMT